Weather Service Report


560 
ASUS41 KBOX 281010
RWRBOX

REGIONAL WEATHER ROUNDUP
NATIONAL WEATHER SERVICE TAUNTON MA
600 AM EDT TUE JUL 28 2015

NOTE:  "FAIR" INDICATES FEW OR NO CLOUDS BELOW 12,000 FEET WITH NO 
SIGNIFICANT WEATHER AND/OR OBSTRUCTIONS TO VISIBILITY.  THE FOLLOWING 
OBSERVATION LOCATIONS DO NOT REPORT PRESENT WEATHER...PROVINCETOWN...
SMITHFIELD...BLOCK ISLAND...KEENE...AND OXFORD.

MAZALL-281100-
EASTERN MASSACHUSETTS
  
CITY           SKY/WX    TMP DP  RH WIND       PRES   REMARKS
BOSTON         PTCLDY    70  68  93 SW8       29.98S                  
BEVERLY        PTCLDY    69  66  90 SW3       29.97S                  
LAWRENCE       PTCLDY    68  67  96 SW5       29.99S FOG              
BEDFORD        PTCLDY    68  66  93 S3        29.97R                  
BLUE HILL        N/A     67  67 100 SW9       30.00R                  
NORWOOD        FOG       65  65 100 CALM      29.99R VSB 3/4          
MARSHFIELD     MOCLDY    70  70 100 SW5       30.00S                  
PLYMOUTH       CLEAR     70  69  97 S3        30.00S                  
TAUNTON        PTCLDY    70  68  93 S3        29.99S FOG              
NEW BEDFORD    CLOUDY    69  68  96 SW5       29.99F FOG              
$$

MAZALL-281100-
CAPE COD AND THE ISLANDS
  
CITY           SKY/WX    TMP DP  RH WIND       PRES   REMARKS
FALMOUTH       CLOUDY    70  70 100 SW7       30.01S                  
HYANNIS        PTCLDY    72  70  93 SW6       30.00S                  
CHATHAM        MOCLDY    69  69 100 SW3       30.01S                  
PROVINCETOWN   CLOUDY    70  64  83 S9        30.00S                  
NANTUCKET      CLOUDY    68  67  96 S5        30.02S FOG              
MARTHAS VNYRD  FOG       70  69  97 SW5       30.00F VSB 1            
$$
 
MAZALL-281100-
CENTRAL AND WESTERN MASSACHUSETTS
  
CITY           SKY/WX    TMP DP  RH WIND       PRES   REMARKS
WORCESTER      CLEAR     67  65  93 W8        30.01  FOG              
FITCHBURG      CLEAR     70  66  87 NW7       29.99S                  
ORANGE         FOG       63  63 100 CALM      30.01R VSB 1/4          
SPRINGFIELD    FOG       64  63  94 N1        29.99R VSB 3/4          
WESTFIELD      FOG       64  63  96 CALM      30.00R VSB 1/4          
NORTH ADAMS    FOG       63  62  97 CALM      30.03R VSB 1/4          
PITTSFIELD     FOG       65  65 100 CALM      30.02S VSB<1/4          
$$
 
RIZALL-281100-
RHODE ISLAND
  
CITY           SKY/WX    TMP DP  RH WIND       PRES   REMARKS
PROVIDENCE     CLOUDY    70  69  97 S5        30.00S FOG              
NEWPORT        FOG       69  69 100 SW5       30.00S VSB 1/4          
BLOCK ISLAND   CLEAR     72  72 100 SW10      30.01S                  
SMITHFIELD     CLOUDY    68  68 100 CALM      30.00S                  
WESTERLY       FOG       69  68  96 CALM      30.01S VSB 3/4          
$$
 
CTZALL-281100-
CONNECTICUT
  
CITY           SKY/WX    TMP DP  RH WIND       PRES   REMARKS
BRADLEY INTL   PTCLDY    69  67  93 S3        29.99S                  
HARTFORD       PTCLDY    70  68  93 SW5       29.99S                  
BRIDGEPORT     CLEAR     71  69  93 CALM      30.00S FOG              
DANBURY        CLOUDY    66  63  90 CALM      30.03R                  
GROTON         CLOUDY    69  68  96 CALM      30.00S FOG              
NEW HAVEN      PTCLDY    72  70  93 CALM      30.00S                  
CHESTER        NOT AVBL                                               
MERIDEN        CLOUDY    67  65  93 CALM      30.00S FOG              
WILLIMANTIC    CLOUDY    70  68  93 S5        30.00S                  
OXFORD         FOG       68  61  77 CALM      30.04S VSB 1/2          
$$

MEZ002-015-021-024-NHZ003-005-008-011-012-014-VTZ005-008-281100-
NORTHERN NEW ENGLAND
  
CITY           SKY/WX    TMP DP  RH WIND       PRES   REMARKS
PORTLAND ME    CLOUDY    65  64  97 VRB5      29.97S FOG              
BANGOR ME      LGT RAIN  64  64 100 CALM      29.98R FOG              
CONCORD NH     MOCLDY    67  65  93 MISG      29.98F                  
MANCHESTER NH  MOCLDY    68  66  93 CALM      29.97R                  
NASHUA NH      NOT AVBL                                               
PORTSMOUTH NH  MOCLDY    67  66  94 CALM      29.96R                  
JAFFREY NH     FOG       67  66  97 S6        30.03R VSB 1/2          
KEENE NH       CLOUDY    64  59  82 CALM      30.02R                  
BURLINGTON VT  PTCLDY    67  64  90 SE5       29.99R                  
MT. WASHINGTON PTCLDY    50  43  76 NW29        N/A                   
$$

NYZ052-076-281100-
EASTERN NEW YORK
  
CITY           SKY/WX    TMP DP  RH WIND       PRES   REMARKS
ALBANY         CLOUDY    70  68  93 CALM      30.01R FOG              
NEW YORK CITY  PTCLDY    77  69  76 CALM      29.99S                  
$$
 
ANZALL-281100-
MARINE OBSERVATIONS
  
STATION/POSITION TIME  TEMP    WIND        PRES    VSBY  WAVE
                       AIR SEA DIR/SP/G                  HT/PER
                 (UTC) (F)     (DEG/KT/KT) (MB)    (MI)  (FT/S)
BOSTON BUOY      0950   69 68  200/  6/  6 1015.6R         2/ 9
BUZZARDS BAY     0900          210/ 12/ 12 1016.7F
NANTUCKET SOUND  0950   72 72  210/ 10/ 12 1015.7F         1
MASS BAY-STELLWA 0904   69 68  200/ 10/ 10   N/A    1 7/8  2/ 8
ISLE OF SHOALS   0900   69     230/ 11/ 11 1014.1R
S OF BLOCK IS    0908      71                N/A           2/11
$$

......................KEY.........................
  SKY/WX - SKY CONDITION/PRESENT WEATHER
  TMP    - TEMPERATURE IN FAHRENHEIT
  DWPT   - DEWPOINT IN FAHRENHEIT
  RH     - RELATIVE HUMIDITY IN PERCENT
  WIND   - DIRECTION AND SPEED IN MPH
  PRES   - MEAN SEA LEVEL PRESSURE IN INCHES OF HG
  WCI    - WIND CHILL INDEX
  VSB    - VISIBILITY IN MILES
  HX     - HEAT INDEX
  TC     - TEMPERATURE IN CELSIUS
  VRB    - VARIABLE WIND DIRECTION
  N/A    - NOT AVAILABLE

Return to Home page


Western Regional Climate Center, wrcc@dri.edu